Time,TemperatureF,DewpointF,PressureIn,WindDirection,WindDirectionDegrees,WindSpeedMPH,WindSpeedGustMPH,Humidity,HourlyPrecipIn,Conditions,Clouds,dailyrainin,SoftwareType,DateUTC
2013-05-13 00:03:00,42.1,29.2,30.12,West,264,0.1,2.3,60,0.00,CLR,,0.00,WeatherDisplay:10.37,2013-05-13 05:03:00,
2013-05-13 00:08:00,42.2,29.3,30.13,West,264,0.2,1.2,60,0.00,CLR,,0.00,WeatherDisplay:10.37,2013-05-13 05:08:00,
2013-05-13 00:13:00,42.0,29.5,30.13,West,264,0.6,2.3,61,0.00,CLR,,0.00,WeatherDisplay:10.37,2013-05-13 05:13:00,
2013-05-13 00:18:00,42.0,29.5,30.13,WSW,258,0.7,3.5,61,0.00,CLR,,0.00,WeatherDisplay:10.37,2013-05-13 05:18:00,
2013-05-13 00:23:00,41.8,29.3,30.13,WSW,258,0.0,1.2,61,0.00,CLR,,0.00,WeatherDisplay:10.37,2013-05-13 05:23:00,
2013-05-13 00:28:00,41.6,29.5,30.13,WSW,258,0.2,1.2,62,0.00,CLR,,0.00,WeatherDisplay:10.37,2013-05-13 05:28:00,
2013-05-13 00:33:00,41.6,29.5,30.13,WSW,258,0.6,1.2,62,0.00,CLR,,0.00,WeatherDisplay:10.37,2013-05-13 05:33:00,
2013-05-13 00:38:00,41.9,29.8,30.13,WSW,258,1.1,2.3,62,0.00,CLR,,0.00,WeatherDisplay:10.37,2013-05-13 05:38:00,
2013-05-13 00:43:00,41.8,29.7,30.13,WSW,258,0.6,2.3,62,0.00,CLR,,0.00,WeatherDisplay:10.37,2013-05-13 05:43:00,
2013-05-13 00:48:00,41.6,29.5,30.13,WSW,251,0.3,2.3,62,0.00,CLR,,0.00,WeatherDisplay:10.37,2013-05-13 05:48:00,
2013-05-13 00:53:00,41.6,29.5,30.13,WSW,250,0.6,3.5,62,0.00,CLR,,0.00,WeatherDisplay:10.37,2013-05-13 05:53:00,
2013-05-13 00:58:00,41.4,29.7,30.13,West,259,1.0,2.3,63,0.00,CLR,,0.00,WeatherDisplay:10.37,2013-05-13 05:58:00,
2013-05-13 01:03:00,41.3,29.6,30.13,West,259,0.5,1.2,63,0.00,CLR,,0.00,WeatherDisplay:10.37,2013-05-13 06:03:00,
2013-05-13 01:08:00,41.2,29.9,30.13,West,259,0.0,1.2,64,0.00,CLR,,0.00,WeatherDisplay:10.37,2013-05-13 06:08:00,
2013-05-13 01:13:00,40.9,30.0,30.13,West,259,0.0,1.2,65,0.00,CLR,,0.00,WeatherDisplay:10.37,2013-05-13 06:13:00,
2013-05-13 01:18:00,41.0,30.1,30.13,West,259,0.6,2.3,65,0.00,CLR,,0.00,WeatherDisplay:10.37,2013-05-13 06:18:00,
2013-05-13 01:23:00,40.6,30.1,30.13,WSW,254,1.2,3.5,66,0.00,CLR,,0.00,WeatherDisplay:10.37,2013-05-13 06:23:00,
2013-05-13 01:28:00,40.5,30.0,30.13,WSW,254,0.5,2.3,66,0.00,CLR,,0.00,WeatherDisplay:10.37,2013-05-13 06:28:00,
2013-05-13 01:33:00,40.4,30.3,30.13,WSW,254,0.6,1.2,67,0.00,CLR,,0.00,WeatherDisplay:10.37,2013-05-13 06:33:00,
2013-05-13 01:38:00,40.3,30.2,30.13,WSW,254,0.6,2.3,67,0.00,CLR,,0.00,WeatherDisplay:10.37,2013-05-13 06:38:00,
2013-05-13 01:43:00,40.2,30.1,30.13,WSW,254,1.4,2.3,67,0.00,CLR,,0.00,WeatherDisplay:10.37,2013-05-13 06:43:00,
2013-05-13 01:48:00,40.0,30.3,30.13,WSW,250,1.4,3.5,68,0.00,CLR,,0.00,WeatherDisplay:10.37,2013-05-13 06:48:00,
2013-05-13 01:53:00,40.1,30.4,30.13,WSW,255,1.0,2.3,68,0.00,CLR,,0.00,WeatherDisplay:10.37,2013-05-13 06:53:00,
2013-05-13 01:58:00,40.0,30.3,30.13,WSW,255,0.5,2.3,68,0.00,CLR,,0.00,WeatherDisplay:10.37,2013-05-13 06:58:00,
2013-05-13 02:03:00,39.9,30.5,30.13,WSW,255,0.6,2.3,69,0.00,CLR,,0.00,WeatherDisplay:10.37,2013-05-13 07:03:00,
2013-05-13 02:08:00,39.6,30.3,30.13,WSW,248,0.9,3.5,69,0.00,CLR,,0.00,WeatherDisplay:10.37,2013-05-13 07:08:00,
2013-05-13 02:13:00,39.8,30.5,30.13,WSW,248,0.7,2.3,69,0.00,CLR,,0.00,WeatherDisplay:10.37,2013-05-13 07:13:00,
2013-05-13 02:18:00,39.9,30.5,30.13,WSW,248,0.7,3.5,69,0.00,CLR,,0.00,WeatherDisplay:10.37,2013-05-13 07:18:00,
2013-05-13 02:23:00,39.8,30.8,30.13,WSW,246,1.1,3.5,70,0.00,CLR,,0.00,WeatherDisplay:10.37,2013-05-13 07:23:00,
2013-05-13 02:28:00,39.7,30.7,30.13,WSW,246,0.8,3.5,70,0.00,CLR,,0.00,WeatherDisplay:10.37,2013-05-13 07:28:00,
2013-05-13 02:33:00,39.8,30.8,30.13,WSW,255,0.9,2.3,70,0.00,CLR,,0.00,WeatherDisplay:10.37,2013-05-13 07:33:00,
2013-05-13 02:38:00,39.7,30.7,30.13,WSW,255,0.5,2.3,70,0.00,CLR,,0.00,WeatherDisplay:10.37,2013-05-13 07:38:00,
2013-05-13 02:43:00,39.6,30.6,30.13,WSW,255,1.0,2.3,70,0.00,CLR,,0.00,WeatherDisplay:10.37,2013-05-13 07:43:00,
2013-05-13 02:48:00,39.5,30.5,30.13,WSW,258,0.6,2.3,70,0.00,CLR,,0.00,WeatherDisplay:10.37,2013-05-13 07:48:00,
2013-05-13 02:53:00,39.4,30.4,30.13,WSW,240,0.6,3.5,70,0.00,CLR,,0.00,WeatherDisplay:10.37,2013-05-13 07:53:00,
2013-05-13 02:58:00,39.3,30.7,30.13,WSW,253,0.4,2.3,71,0.00,CLR,,0.00,WeatherDisplay:10.37,2013-05-13 07:58:00,
2013-05-13 03:03:00,39.1,30.5,30.14,WSW,253,0.6,2.3,71,0.00,CLR,,0.00,WeatherDisplay:10.37,2013-05-13 08:03:00,
2013-05-13 03:08:00,39.1,30.8,30.13,WSW,252,0.0,1.2,72,0.00,CLR,,0.00,WeatherDisplay:10.37,2013-05-13 08:08:00,
2013-05-13 03:13:00,38.9,30.3,30.13,WSW,252,0.3,1.2,71,0.00,CLR,,0.00,WeatherDisplay:10.37,2013-05-13 08:13:00,
2013-05-13 03:18:00,39.1,30.5,30.13,WSW,242,0.9,2.3,71,0.00,CLR,,0.00,WeatherDisplay:10.37,2013-05-13 08:18:00,
2013-05-13 03:23:00,39.1,30.5,30.13,WSW,240,0.9,2.3,71,0.00,CLR,,0.00,WeatherDisplay:10.37,2013-05-13 08:23:00,
2013-05-13 03:28:00,39.1,30.5,30.13,SW,234,0.4,2.3,71,0.00,CLR,,0.00,WeatherDisplay:10.37,2013-05-13 08:28:00,
2013-05-13 03:33:00,39.1,30.8,30.13,SW,234,0.3,1.2,72,0.00,CLR,,0.00,WeatherDisplay:10.37,2013-05-13 08:33:00,
2013-05-13 03:38:00,39.2,30.9,30.13,SW,234,0.3,1.2,72,0.00,CLR,,0.00,WeatherDisplay:10.37,2013-05-13 08:38:00,
2013-05-13 03:43:00,39.0,30.7,30.13,SW,234,0.2,1.0,72,0.00,CLR,,0.00,WeatherDisplay:10.37,2013-05-13 08:43:00,
2013-05-13 03:48:00,39.0,30.4,30.13,SW,234,0.6,1.2,71,0.00,CLR,,0.00,WeatherDisplay:10.37,2013-05-13 08:48:00,
2013-05-13 03:53:00,38.8,30.5,30.13,SW,234,0.5,2.3,72,0.00,CLR,,0.00,WeatherDisplay:10.37,2013-05-13 08:53:00,
2013-05-13 03:58:00,38.9,30.6,30.13,SW,234,0.1,3.5,72,0.00,CLR,,0.00,WeatherDisplay:10.37,2013-05-13 08:58:00,
2013-05-13 04:03:00,38.8,30.9,30.13,SW,234,0.3,1.2,73,0.00,CLR,,0.00,WeatherDisplay:10.37,2013-05-13 09:03:00,
2013-05-13 04:08:00,38.7,30.8,30.13,SW,234,0.0,1.2,73,0.00,CLR,,0.00,WeatherDisplay:10.37,2013-05-13 09:08:00,
2013-05-13 04:13:00,38.6,30.7,30.13,SW,234,0.2,1.2,73,0.00,CLR,,0.00,WeatherDisplay:10.37,2013-05-13 09:13:00,
2013-05-13 04:18:00,38.5,30.6,30.13,SW,234,0.0,0.0,73,0.00,CLR,,0.00,WeatherDisplay:10.37,2013-05-13 09:18:00,
2013-05-13 04:23:00,38.1,30.5,30.12,SW,234,0.0,1.2,74,0.00,CLR,,0.00,WeatherDisplay:10.37,2013-05-13 09:23:00,
2013-05-13 04:28:00,38.2,30.6,30.12,SW,234,0.0,1.2,74,0.00,CLR,,0.00,WeatherDisplay:10.37,2013-05-13 09:28:00,
2013-05-13 04:33:00,38.2,30.6,30.13,SW,234,0.7,1.2,74,0.00,CLR,,0.00,WeatherDisplay:10.37,2013-05-13 09:33:00,
2013-05-13 04:38:00,37.9,30.4,30.13,SW,234,1.0,1.2,74,0.00,CLR,,0.00,WeatherDisplay:10.37,2013-05-13 09:38:00,
2013-05-13 04:43:00,38.0,30.4,30.13,SW,234,1.1,1.2,74,0.00,CLR,,0.00,WeatherDisplay:10.37,2013-05-13 09:43:00,
2013-05-13 04:48:00,37.9,30.7,30.13,SW,234,0.0,0.0,75,0.00,CLR,,0.00,WeatherDisplay:10.37,2013-05-13 09:48:00,
2013-05-13 04:53:00,37.9,30.7,30.13,SW,234,0.2,1.2,75,0.00,CLR,,0.00,WeatherDisplay:10.37,2013-05-13 09:53:00,
2013-05-13 04:58:00,37.7,30.5,30.13,SW,234,0.0,1.0,75,0.00,CLR,,0.00,WeatherDisplay:10.37,2013-05-13 09:58:00,
2013-05-13 05:03:00,37.6,30.4,30.13,SW,234,0.0,0.0,75,0.00,CLR,,0.00,WeatherDisplay:10.37,2013-05-13 10:03:00,
2013-05-13 05:08:00,37.4,30.5,30.13,SW,234,0.0,0.0,76,0.00,CLR,,0.00,WeatherDisplay:10.37,2013-05-13 10:08:00,
2013-05-13 05:13:00,37.3,30.4,30.14,SW,234,0.2,1.2,76,0.00,CLR,,0.00,WeatherDisplay:10.37,2013-05-13 10:13:00,
2013-05-13 05:18:00,37.2,30.7,30.14,SW,234,0.3,1.2,77,0.00,CLR,,0.00,WeatherDisplay:10.37,2013-05-13 10:18:00,
2013-05-13 05:23:00,37.2,30.7,30.14,SW,234,0.0,1.2,77,0.00,CLR,,0.00,WeatherDisplay:10.37,2013-05-13 10:23:00,
2013-05-13 05:28:00,37.3,30.7,30.14,SW,234,0.0,0.0,77,0.00,CLR,,0.00,WeatherDisplay:10.37,2013-05-13 10:28:00,
2013-05-13 05:33:00,37.3,30.7,30.14,SW,234,0.0,0.0,77,0.00,CLR,,0.00,WeatherDisplay:10.37,2013-05-13 10:33:00,
2013-05-13 05:38:00,37.4,30.8,30.14,SW,234,0.0,1.2,77,0.00,CLR,,0.00,WeatherDisplay:10.37,2013-05-13 10:38:00,
2013-05-13 05:43:00,37.5,30.9,30.14,SW,234,0.2,1.2,77,0.00,CLR,,0.00,WeatherDisplay:10.37,2013-05-13 10:43:00,
2013-05-13 05:48:00,37.6,31.0,30.14,SW,234,0.1,1.2,77,0.00,CLR,,0.00,WeatherDisplay:10.37,2013-05-13 10:48:00,
2013-05-13 05:53:00,37.7,31.1,30.14,SW,234,0.0,1.2,77,0.00,CLR,,0.00,WeatherDisplay:10.37,2013-05-13 10:53:00,
2013-05-13 05:58:00,38.0,31.4,30.14,SW,234,0.4,1.2,77,0.00,CLR,,0.00,WeatherDisplay:10.37,2013-05-13 10:58:00,
2013-05-13 06:03:00,38.0,31.4,30.14,SW,234,0.3,0.0,77,0.00,CLR,,0.00,WeatherDisplay:10.37,2013-05-13 11:03:00,
2013-05-13 06:08:00,37.8,31.2,30.15,NNW,338,3.7,6.0,77,0.00,CLR,,0.00,WeatherDisplay:10.37,2013-05-13 11:08:00,
2013-05-13 06:13:00,37.0,30.5,30.15,NNW,331,0.5,3.5,77,0.00,CLR,,0.00,WeatherDisplay:10.37,2013-05-13 11:13:00,
2013-05-13 06:18:00,37.5,31.3,30.15,NNW,344,2.9,3.5,78,0.00,CLR,,0.00,WeatherDisplay:10.37,2013-05-13 11:18:00,
2013-05-13 06:23:00,38.2,31.9,30.15,NNW,344,0.9,2.3,78,0.00,CLR,,0.00,WeatherDisplay:10.37,2013-05-13 11:23:00,
2013-05-13 06:28:00,37.9,31.3,30.16,NNW,344,2.2,3.5,77,0.00,CLR,,0.00,WeatherDisplay:10.37,2013-05-13 11:28:00,
2013-05-13 06:33:00,37.8,32.2,30.16,NNW,343,0.2,2.3,80,0.00,CLR,,0.00,WeatherDisplay:10.37,2013-05-13 11:33:00,
2013-05-13 06:38:00,38.6,32.6,30.16,NNW,343,1.8,2.3,79,0.00,CLR,,0.00,WeatherDisplay:10.37,2013-05-13 11:38:00,
2013-05-13 06:43:00,38.9,32.9,30.16,NNW,343,0.2,2.3,79,0.00,CLR,,0.00,WeatherDisplay:10.37,2013-05-13 11:43:00,
2013-05-13 06:48:00,39.6,33.6,30.16,NNW,343,0.0,1.2,79,0.00,CLR,,0.00,WeatherDisplay:10.37,2013-05-13 11:48:00,
2013-05-13 06:53:00,40.4,33.4,30.17,NNW,343,0.3,1.2,76,0.00,CLR,,0.00,WeatherDisplay:10.37,2013-05-13 11:53:00,
2013-05-13 06:58:00,40.8,33.8,30.17,NNW,343,0.0,1.2,76,0.00,CLR,,0.00,WeatherDisplay:10.37,2013-05-13 11:58:00,
2013-05-13 07:03:00,41.3,33.6,30.17,NNW,343,0.4,1.2,74,0.00,CLR,,0.00,WeatherDisplay:10.37,2013-05-13 12:03:00,
2013-05-13 07:08:00,41.7,34.0,30.17,NNW,343,0.5,2.3,74,0.00,CLR,,0.00,WeatherDisplay:10.37,2013-05-13 12:08:00,
2013-05-13 07:13:00,42.5,34.8,30.17,NNW,343,0.8,1.2,74,0.00,CLR,,0.00,WeatherDisplay:10.37,2013-05-13 12:13:00,
2013-05-13 07:18:00,42.9,34.5,30.17,NNW,343,0.0,2.3,72,0.00,CLR,,0.00,WeatherDisplay:10.37,2013-05-13 12:18:00,
2013-05-13 07:23:00,43.3,34.9,30.17,NNW,343,0.4,2.3,72,0.00,CLR,,0.00,WeatherDisplay:10.37,2013-05-13 12:23:00,
2013-05-13 07:28:00,43.7,35.3,30.17,NNW,343,1.1,2.0,72,0.00,CLR,,0.00,WeatherDisplay:10.37,2013-05-13 12:28:00,
2013-05-13 07:33:00,44.3,35.8,30.18,WSW,246,1.0,2.3,72,0.00,CLR,,0.00,WeatherDisplay:10.37,2013-05-13 12:33:00,
2013-05-13 07:38:00,45.3,36.4,30.18,WSW,254,0.3,3.5,71,0.00,CLR,,0.00,WeatherDisplay:10.37,2013-05-13 12:38:00,
2013-05-13 07:43:00,46.0,36.4,30.18,WSW,245,0.5,2.3,69,0.00,CLR,,0.00,WeatherDisplay:10.37,2013-05-13 12:43:00,
2013-05-13 07:48:00,46.9,36.9,30.18,WSW,245,1.4,2.3,68,0.00,CLR,,0.00,WeatherDisplay:10.37,2013-05-13 12:48:00,
2013-05-13 07:53:00,47.6,36.4,30.18,WSW,245,0.0,1.2,65,0.00,CLR,,0.00,WeatherDisplay:10.37,2013-05-13 12:53:00,
2013-05-13 07:58:00,48.3,35.9,30.18,WSW,245,0.5,2.3,62,0.00,CLR,,0.00,WeatherDisplay:10.37,2013-05-13 12:58:00,
2013-05-13 08:03:00,49.0,36.1,30.18,WSW,245,0.6,1.2,61,0.00,CLR,,0.00,WeatherDisplay:10.37,2013-05-13 13:03:00,
2013-05-13 08:08:00,49.5,35.8,30.18,WSW,245,1.3,3.5,59,0.00,CLR,,0.00,WeatherDisplay:10.37,2013-05-13 13:08:00,
2013-05-13 08:13:00,50.1,35.9,30.18,WSW,245,0.5,1.2,58,0.00,CLR,,0.00,WeatherDisplay:10.37,2013-05-13 13:13:00,
2013-05-13 08:18:00,50.6,35.5,30.18,WSW,240,1.4,4.6,56,0.00,CLR,,0.00,WeatherDisplay:10.37,2013-05-13 13:18:00,
2013-05-13 08:23:00,51.2,35.1,30.18,WSW,246,0.8,1.2,54,0.00,CLR,,0.00,WeatherDisplay:10.37,2013-05-13 13:23:00,
2013-05-13 08:28:00,51.8,34.2,30.18,WSW,250,2.2,3.5,51,0.00,CLR,,0.00,WeatherDisplay:10.37,2013-05-13 13:28:00,
2013-05-13 08:33:00,52.5,34.9,30.19,SSW,208,1.2,3.5,51,0.00,CLR,,0.00,WeatherDisplay:10.37,2013-05-13 13:33:00,
2013-05-13 08:38:00,52.9,32.1,30.19,SW,229,1.9,8.1,45,0.00,CLR,,0.00,WeatherDisplay:10.37,2013-05-13 13:38:00,
2013-05-13 08:43:00,53.3,33.6,30.18,SW,234,1.9,5.8,47,0.00,CLR,,0.00,WeatherDisplay:10.37,2013-05-13 13:43:00,
2013-05-13 08:48:00,53.5,35.3,30.19,SW,215,2.8,4.0,50,0.00,CLR,,0.00,WeatherDisplay:10.37,2013-05-13 13:48:00,
2013-05-13 08:53:00,54.0,34.2,30.19,WSW,239,3.6,4.6,47,0.00,CLR,,0.00,WeatherDisplay:10.37,2013-05-13 13:53:00,
2013-05-13 08:58:00,54.5,32.4,30.19,SSW,194,3.8,6.9,43,0.00,CLR,,0.00,WeatherDisplay:10.37,2013-05-13 13:58:00,
2013-05-13 09:03:00,54.9,32.2,30.19,SW,227,3.7,5.8,42,0.00,CLR,,0.00,WeatherDisplay:10.37,2013-05-13 14:03:00,
2013-05-13 09:08:00,55.0,31.1,30.19,WSW,240,5.0,11.5,40,0.00,CLR,,0.00,WeatherDisplay:10.37,2013-05-13 14:08:00,
2013-05-13 09:14:00,55.1,30.6,30.19,West,265,5.3,7.0,39,0.00,CLR,,0.00,WeatherDisplay:10.37,2013-05-13 14:14:00,
2013-05-13 09:19:00,55.4,31.5,30.19,SSW,205,3.7,5.8,40,0.00,CLR,,0.00,WeatherDisplay:10.37,2013-05-13 14:19:00,
2013-05-13 09:24:00,55.7,31.7,30.19,WSW,251,1.2,3.5,40,0.00,CLR,,0.00,WeatherDisplay:10.37,2013-05-13 14:24:00,
2013-05-13 09:29:00,55.7,31.7,30.19,West,262,2.0,4.6,40,0.00,CLR,,0.00,WeatherDisplay:10.37,2013-05-13 14:29:00,
2013-05-13 09:34:00,56.1,30.2,30.19,SSW,212,4.1,5.8,37,0.00,CLR,,0.00,WeatherDisplay:10.37,2013-05-13 14:34:00,
2013-05-13 09:39:00,56.4,32.4,30.19,SSW,213,3.1,5.8,40,0.00,CLR,,0.00,WeatherDisplay:10.37,2013-05-13 14:39:00,
2013-05-13 09:44:00,57.0,31.6,30.19,SW,227,1.7,3.5,38,0.00,CLR,,0.00,WeatherDisplay:10.37,2013-05-13 14:44:00,
2013-05-13 09:49:00,57.1,33.6,30.19,SSW,202,4.1,6.9,41,0.00,CLR,,0.00,WeatherDisplay:10.37,2013-05-13 14:49:00,
2013-05-13 09:54:00,57.0,31.0,30.19,NNW,327,3.7,6.9,37,0.00,CLR,,0.00,WeatherDisplay:10.37,2013-05-13 14:54:00,
2013-05-13 09:59:00,56.8,28.7,30.19,WNW,300,3.0,5.8,34,0.00,CLR,,0.00,WeatherDisplay:10.37,2013-05-13 14:59:00,
2013-05-13 10:04:00,56.4,28.3,30.19,West,276,2.7,4.6,34,0.00,CLR,,0.00,WeatherDisplay:10.37,2013-05-13 15:04:00,
2013-05-13 10:09:00,57.6,30.1,30.19,WSW,238,1.3,3.5,35,0.00,CLR,,0.00,WeatherDisplay:10.37,2013-05-13 15:09:00,
2013-05-13 10:14:00,57.8,33.6,30.19,West,268,4.2,5.8,40,0.00,CLR,,0.00,WeatherDisplay:10.37,2013-05-13 15:14:00,
2013-05-13 10:19:00,57.3,28.4,30.19,NW,323,1.6,3.5,33,0.00,CLR,,0.00,WeatherDisplay:10.37,2013-05-13 15:19:00,
2013-05-13 10:24:00,58.2,35.2,30.19,SSW,209,5.4,8.1,42,0.00,CLR,,0.00,WeatherDisplay:10.37,2013-05-13 15:24:00,
2013-05-13 10:29:00,58.6,31.0,30.19,WSW,238,1.1,3.5,35,0.00,CLR,,0.00,WeatherDisplay:10.37,2013-05-13 15:29:00,
2013-05-13 10:34:00,58.2,29.9,30.19,NW,319,1.6,3.5,34,0.00,CLR,,0.00,WeatherDisplay:10.37,2013-05-13 15:34:00,
2013-05-13 10:39:00,58.3,30.0,30.19,NW,317,4.5,6.9,34,0.00,CLR,,0.00,WeatherDisplay:10.37,2013-05-13 15:39:00,
2013-05-13 10:44:00,59.1,30.0,30.19,West,262,1.0,3.5,33,0.00,CLR,,0.00,WeatherDisplay:10.37,2013-05-13 15:44:00,
2013-05-13 10:49:00,58.7,31.8,30.19,West,265,4.4,7.0,36,0.00,CLR,,0.00,WeatherDisplay:10.37,2013-05-13 15:49:00,
2013-05-13 10:54:00,59.4,34.4,30.19,SW,236,5.8,11.5,39,0.00,CLR,,0.00,WeatherDisplay:10.37,2013-05-13 15:54:00,
2013-05-13 10:59:00,59.3,28.6,30.18,WSW,240,5.1,5.8,31,0.00,CLR,,0.00,WeatherDisplay:10.37,2013-05-13 15:59:00,
2013-05-13 11:04:00,59.3,32.3,30.18,SW,231,4.1,8.1,36,0.00,CLR,,0.00,WeatherDisplay:10.37,2013-05-13 16:04:00,
2013-05-13 11:09:00,59.7,33.4,30.18,SSE,157,0.7,2.3,37,0.00,CLR,,0.00,WeatherDisplay:10.37,2013-05-13 16:09:00,
2013-05-13 11:14:00,60.2,29.4,30.18,North,351,4.9,9.2,31,0.00,CLR,,0.00,WeatherDisplay:10.37,2013-05-13 16:14:00,
2013-05-13 11:19:00,59.6,28.1,30.18,West,269,2.4,5.0,30,0.00,CLR,,0.00,WeatherDisplay:10.37,2013-05-13 16:19:00,
2013-05-13 11:24:00,59.8,27.4,30.18,WSW,249,1.9,3.5,29,0.00,CLR,,0.00,WeatherDisplay:10.37,2013-05-13 16:24:00,
2013-05-13 11:29:00,59.7,35.3,30.18,WNW,282,1.3,3.5,40,0.00,CLR,,0.00,WeatherDisplay:10.37,2013-05-13 16:29:00,
2013-05-13 11:34:00,60.7,27.4,30.17,South,169,5.6,8.0,28,0.00,CLR,,0.00,WeatherDisplay:10.37,2013-05-13 16:34:00,
2013-05-13 11:39:00,61.2,31.1,30.17,NNW,338,2.0,4.6,32,0.00,CLR,,0.00,WeatherDisplay:10.37,2013-05-13 16:39:00,
2013-05-13 11:44:00,61.0,28.5,30.17,WNW,286,3.2,5.8,29,0.00,CLR,,0.00,WeatherDisplay:10.37,2013-05-13 16:44:00,
2013-05-13 11:49:00,61.0,29.3,30.17,WSW,256,4.8,13.8,30,0.00,CLR,,0.00,WeatherDisplay:10.37,2013-05-13 16:49:00,
2013-05-13 11:54:00,61.3,29.6,30.17,WSW,255,4.3,8.1,30,0.00,CLR,,0.00,WeatherDisplay:10.37,2013-05-13 16:54:00,
2013-05-13 11:59:00,61.0,27.6,30.16,WSW,256,4.2,6.9,28,0.00,CLR,,0.00,WeatherDisplay:10.37,2013-05-13 16:59:00,
2013-05-13 12:04:00,60.6,29.8,30.16,West,268,2.6,4.6,31,0.00,CLR,,0.00,WeatherDisplay:10.37,2013-05-13 17:04:00,
2013-05-13 12:09:00,61.4,32.8,30.16,West,268,5.2,9.2,34,0.00,CLR,,0.00,WeatherDisplay:10.37,2013-05-13 17:09:00,
2013-05-13 12:14:00,61.2,26.9,30.16,SSW,208,2.5,8.1,27,0.00,CLR,,0.00,WeatherDisplay:10.37,2013-05-13 17:14:00,
2013-05-13 12:19:00,62.2,28.7,30.16,NW,325,2.2,3.5,28,0.00,CLR,,0.00,WeatherDisplay:10.37,2013-05-13 17:19:00,
2013-05-13 12:24:00,62.0,28.5,30.16,NW,309,1.6,3.5,28,0.00,CLR,,0.00,WeatherDisplay:10.37,2013-05-13 17:24:00,
2013-05-13 12:29:00,61.9,28.4,30.15,WNW,286,1.4,3.5,28,0.00,CLR,,0.00,WeatherDisplay:10.37,2013-05-13 17:29:00,
2013-05-13 12:34:00,61.1,29.4,30.14,NNW,337,1.9,3.5,30,0.00,CLR,,0.00,WeatherDisplay:10.37,2013-05-13 17:34:00,
2013-05-13 12:39:00,61.8,30.8,30.14,WSW,246,6.3,13.8,31,0.00,CLR,,0.00,WeatherDisplay:10.37,2013-05-13 17:39:00,
2013-05-13 12:44:00,62.5,30.6,30.14,WSW,248,5.7,9.2,30,0.00,CLR,,0.00,WeatherDisplay:10.37,2013-05-13 17:44:00,
2013-05-13 12:49:00,63.1,31.9,30.14,West,262,2.2,4.6,31,0.00,CLR,,0.00,WeatherDisplay:10.37,2013-05-13 17:49:00,
2013-05-13 12:54:00,63.2,29.5,30.14,West,271,4.0,5.8,28,0.00,CLR,,0.00,WeatherDisplay:10.37,2013-05-13 17:54:00,
2013-05-13 12:59:00,63.0,27.5,30.14,West,272,1.2,3.5,26,0.00,CLR,,0.00,WeatherDisplay:10.37,2013-05-13 17:59:00,
2013-05-13 13:04:00,63.7,31.7,30.14,WSW,247,3.1,4.6,30,0.00,CLR,,0.00,WeatherDisplay:10.37,2013-05-13 18:04:00,
2013-05-13 13:09:00,64.1,31.2,30.14,WNW,301,0.9,2.3,29,0.00,CLR,,0.00,WeatherDisplay:10.37,2013-05-13 18:09:00,
2013-05-13 13:14:00,64.2,32.9,30.13,WSW,250,3.5,6.9,31,0.00,CLR,,0.00,WeatherDisplay:10.37,2013-05-13 18:14:00,
2013-05-13 13:19:00,64.1,33.6,30.13,SSW,213,2.1,4.6,32,0.00,CLR,,0.00,WeatherDisplay:10.37,2013-05-13 18:19:00,
2013-05-13 13:24:00,64.4,36.1,30.14,WSW,240,6.0,10.4,35,0.00,CLR,,0.00,WeatherDisplay:10.37,2013-05-13 18:24:00,
2013-05-13 13:29:00,64.8,30.0,30.13,West,281,6.4,9.2,27,0.00,CLR,,0.00,WeatherDisplay:10.37,2013-05-13 18:29:00,
2013-05-13 13:34:00,64.6,29.8,30.13,WSW,257,3.4,9.2,27,0.00,CLR,,0.00,WeatherDisplay:10.37,2013-05-13 18:34:00,
2013-05-13 13:39:00,64.7,28.0,30.13,SW,232,1.8,5.8,25,0.00,CLR,,0.00,WeatherDisplay:10.37,2013-05-13 18:39:00,
2013-05-13 13:44:00,64.2,32.1,30.12,NNW,344,0.9,2.3,30,0.00,CLR,,0.00,WeatherDisplay:10.37,2013-05-13 18:44:00,
2013-05-13 13:49:00,64.4,29.7,30.12,WNW,303,2.0,8.1,27,0.00,CLR,,0.00,WeatherDisplay:10.37,2013-05-13 18:49:00,
2013-05-13 13:54:00,65.6,29.8,30.12,West,264,3.5,5.8,26,0.00,CLR,,0.00,WeatherDisplay:10.37,2013-05-13 18:54:00,
2013-05-13 13:59:00,64.8,29.1,30.12,NW,320,4.5,9.2,26,0.00,CLR,,0.00,WeatherDisplay:10.37,2013-05-13 18:59:00,
2013-05-13 14:04:00,64.7,29.9,30.11,WNW,300,2.6,5.0,27,0.00,CLR,,0.00,WeatherDisplay:10.37,2013-05-13 19:04:00,
2013-05-13 14:09:00,64.9,31.0,30.11,SW,221,0.8,4.0,28,0.00,CLR,,0.00,WeatherDisplay:10.37,2013-05-13 19:09:00,
2013-05-13 14:14:00,65.1,31.2,30.11,NW,307,5.2,6.9,28,0.00,CLR,,0.00,WeatherDisplay:10.37,2013-05-13 19:14:00,
2013-05-13 14:19:00,64.5,27.9,30.11,West,259,0.8,3.5,25,0.00,CLR,,0.00,WeatherDisplay:10.37,2013-05-13 19:19:00,
2013-05-13 14:24:00,64.5,27.9,30.11,SW,225,1.4,4.0,25,0.00,CLR,,0.00,WeatherDisplay:10.37,2013-05-13 19:24:00,
2013-05-13 14:29:00,65.6,32.5,30.10,West,261,5.8,9.2,29,0.00,CLR,,0.00,WeatherDisplay:10.37,2013-05-13 19:29:00,
2013-05-13 14:34:00,65.8,31.8,30.10,WSW,250,6.3,11.5,28,0.00,CLR,,0.00,WeatherDisplay:10.37,2013-05-13 19:34:00,
2013-05-13 14:39:00,65.9,31.8,30.10,SW,221,6.7,10.4,28,0.00,CLR,,0.00,WeatherDisplay:10.37,2013-05-13 19:39:00,
2013-05-13 14:44:00,65.3,27.5,30.10,WSW,239,3.2,6.9,24,0.00,CLR,,0.00,WeatherDisplay:10.37,2013-05-13 19:44:00,
2013-05-13 14:49:00,66.2,37.0,30.10,WSW,237,2.2,4.6,34,0.00,CLR,,0.00,WeatherDisplay:10.37,2013-05-13 19:49:00,
2013-05-13 14:54:00,65.8,29.0,30.09,SW,223,7.3,10.4,25,0.00,CLR,,0.00,WeatherDisplay:10.37,2013-05-13 19:54:00,
2013-05-13 14:59:00,65.8,31.8,30.09,SW,215,1.3,3.5,28,0.00,CLR,,0.00,WeatherDisplay:10.37,2013-05-13 19:59:00,
2013-05-13 15:04:00,65.6,32.5,30.09,SSE,165,5.2,6.9,29,0.00,CLR,,0.00,WeatherDisplay:10.37,2013-05-13 20:04:00,
2013-05-13 15:09:00,66.1,33.7,30.09,SW,230,4.4,6.9,30,0.00,CLR,,0.00,WeatherDisplay:10.37,2013-05-13 20:09:00,
2013-05-13 15:14:00,66.4,30.4,30.08,SSW,208,6.0,6.9,26,0.00,CLR,,0.00,WeatherDisplay:10.37,2013-05-13 20:14:00,
2013-05-13 15:19:00,66.7,30.7,30.08,SW,226,7.9,11.5,26,0.00,CLR,,0.00,WeatherDisplay:10.37,2013-05-13 20:19:00,
2013-05-13 15:24:00,66.8,32.6,30.08,SSW,200,4.7,8.1,28,0.00,CLR,,0.00,WeatherDisplay:10.37,2013-05-13 20:24:00,
2013-05-13 15:29:00,66.6,30.6,30.08,WSW,248,3.8,7.0,26,0.00,CLR,,0.00,WeatherDisplay:10.37,2013-05-13 20:29:00,
2013-05-13 15:34:00,66.2,33.0,30.08,South,190,4.5,9.2,29,0.00,CLR,,0.00,WeatherDisplay:10.37,2013-05-13 20:34:00,
2013-05-13 15:39:00,66.3,33.1,30.08,WSW,246,4.5,11.5,29,0.00,CLR,,0.00,WeatherDisplay:10.37,2013-05-13 20:39:00,
2013-05-13 15:44:00,66.2,28.3,30.07,SW,215,0.5,2.3,24,0.00,CLR,,0.00,WeatherDisplay:10.37,2013-05-13 20:44:00,
2013-05-13 15:49:00,65.7,27.9,30.07,South,182,2.6,6.0,24,0.00,CLR,,0.00,WeatherDisplay:10.37,2013-05-13 20:49:00,
2013-05-13 15:54:00,66.3,28.4,30.07,SSW,208,2.0,4.6,24,0.00,CLR,,0.00,WeatherDisplay:10.37,2013-05-13 20:54:00,
2013-05-13 15:59:00,66.3,30.4,30.07,West,261,3.0,4.6,26,0.00,CLR,,0.00,WeatherDisplay:10.37,2013-05-13 20:59:00,
2013-05-13 16:04:00,65.5,29.7,30.06,West,259,1.6,3.5,26,0.00,CLR,,0.00,WeatherDisplay:10.37,2013-05-13 21:04:00,
2013-05-13 16:09:00,66.3,29.4,30.06,South,180,5.2,8.1,25,0.00,CLR,,0.00,WeatherDisplay:10.37,2013-05-13 21:09:00,
2013-05-13 16:14:00,66.5,27.5,30.06,SW,215,5.3,6.9,23,0.00,CLR,,0.00,WeatherDisplay:10.37,2013-05-13 21:14:00,
2013-05-13 16:19:00,67.0,31.9,30.06,South,188,5.8,10.4,27,0.00,CLR,,0.00,WeatherDisplay:10.37,2013-05-13 21:19:00,
2013-05-13 16:24:00,66.3,29.4,30.05,SSW,208,2.4,4.6,25,0.00,CLR,,0.00,WeatherDisplay:10.37,2013-05-13 21:24:00,
2013-05-13 16:29:00,66.7,32.5,30.05,WSW,248,4.1,8.1,28,0.00,CLR,,0.00,WeatherDisplay:10.37,2013-05-13 21:29:00,
2013-05-13 16:34:00,66.2,29.3,30.05,SSW,202,4.7,5.8,25,0.00,CLR,,0.00,WeatherDisplay:10.37,2013-05-13 21:34:00,
2013-05-13 16:39:00,66.3,29.4,30.05,SE,137,6.5,11.5,25,0.00,CLR,,0.00,WeatherDisplay:10.37,2013-05-13 21:39:00,
2013-05-13 16:44:00,66.7,31.6,30.05,WSW,242,4.5,8.1,27,0.00,CLR,,0.00,WeatherDisplay:10.37,2013-05-13 21:44:00,
2013-05-13 16:49:00,66.6,30.6,30.05,SSW,192,7.4,9.2,26,0.00,CLR,,0.00,WeatherDisplay:10.37,2013-05-13 21:49:00,
2013-05-13 16:54:00,66.5,28.6,30.05,SSE,165,4.1,5.8,24,0.00,CLR,,0.00,WeatherDisplay:10.37,2013-05-13 21:54:00,
2013-05-13 16:59:00,66.7,31.6,30.05,SW,226,6.2,11.5,27,0.00,CLR,,0.00,WeatherDisplay:10.37,2013-05-13 21:59:00,
2013-05-13 17:04:00,66.5,30.5,30.05,WSW,244,4.0,11.5,26,0.00,CLR,,0.00,WeatherDisplay:10.37,2013-05-13 22:04:00,
2013-05-13 17:09:00,66.8,34.3,30.04,WSW,250,2.8,4.6,30,0.00,CLR,,0.00,WeatherDisplay:10.37,2013-05-13 22:09:00,
2013-05-13 17:14:00,66.9,32.7,30.04,SW,224,2.8,4.6,28,0.00,CLR,,0.00,WeatherDisplay:10.37,2013-05-13 22:14:00,
2013-05-13 17:19:00,66.8,30.8,30.04,SSW,199,7.5,11.5,26,0.00,CLR,,0.00,WeatherDisplay:10.37,2013-05-13 22:19:00,
2013-05-13 17:24:00,66.4,30.4,30.04,South,188,4.6,6.9,26,0.00,CLR,,0.00,WeatherDisplay:10.37,2013-05-13 22:24:00,
2013-05-13 17:29:00,66.0,29.1,30.04,SE,143,5.6,10.4,25,0.00,CLR,,0.00,WeatherDisplay:10.37,2013-05-13 22:29:00,
2013-05-13 17:34:00,66.3,29.4,30.04,West,266,3.4,5.0,25,0.00,CLR,,0.00,WeatherDisplay:10.37,2013-05-13 22:34:00,
2013-05-13 17:39:00,66.3,31.3,30.04,SW,228,3.7,6.9,27,0.00,CLR,,0.00,WeatherDisplay:10.37,2013-05-13 22:39:00,
2013-05-13 17:44:00,66.2,32.1,30.03,West,261,3.7,6.9,28,0.00,CLR,,0.00,WeatherDisplay:10.37,2013-05-13 22:44:00,
2013-05-13 17:49:00,65.9,30.0,30.03,SW,219,3.3,4.6,26,0.00,CLR,,0.00,WeatherDisplay:10.37,2013-05-13 22:49:00,
2013-05-13 17:54:00,66.0,30.1,30.03,South,172,3.4,5.8,26,0.00,CLR,,0.00,WeatherDisplay:10.37,2013-05-13 22:54:00,
2013-05-13 17:59:00,66.1,32.0,30.03,SW,220,3.9,6.9,28,0.00,CLR,,0.00,WeatherDisplay:10.37,2013-05-13 22:59:00,
2013-05-13 18:04:00,66.3,32.2,30.03,SW,231,5.6,9.2,28,0.00,CLR,,0.00,WeatherDisplay:10.37,2013-05-13 23:04:00,
2013-05-13 18:09:00,66.7,34.3,30.03,SW,215,3.3,5.0,30,0.00,CLR,,0.00,WeatherDisplay:10.37,2013-05-13 23:09:00,
2013-05-13 18:14:00,66.8,31.7,30.03,SW,219,4.4,9.2,27,0.00,CLR,,0.00,WeatherDisplay:10.37,2013-05-13 23:14:00,
2013-05-13 18:19:00,66.6,32.5,30.03,SSW,210,5.1,6.9,28,0.00,CLR,,0.00,WeatherDisplay:10.37,2013-05-13 23:19:00,
2013-05-13 18:24:00,66.1,33.7,30.03,SW,226,5.5,12.0,30,0.00,CLR,,0.00,WeatherDisplay:10.37,2013-05-13 23:24:00,
2013-05-13 18:29:00,65.6,34.1,30.03,SW,228,5.0,6.9,31,0.00,CLR,,0.00,WeatherDisplay:10.37,2013-05-13 23:29:00,
2013-05-13 18:34:00,65.3,32.2,30.03,SSW,207,3.7,5.8,29,0.00,CLR,,0.00,WeatherDisplay:10.37,2013-05-13 23:34:00,
2013-05-13 18:39:00,65.3,31.3,30.02,SSW,204,3.0,6.0,28,0.00,CLR,,0.00,WeatherDisplay:10.37,2013-05-13 23:39:00,
2013-05-13 18:44:00,65.3,31.3,30.02,SSW,198,3.0,7.0,28,0.00,CLR,,0.00,WeatherDisplay:10.37,2013-05-13 23:44:00,
2013-05-13 18:49:00,65.2,31.2,30.02,South,188,3.0,5.0,28,0.00,CLR,,0.00,WeatherDisplay:10.37,2013-05-13 23:49:00,
2013-05-13 18:54:00,65.2,32.1,30.01,South,182,4.3,8.1,29,0.00,CLR,,0.00,WeatherDisplay:10.37,2013-05-13 23:54:00,
2013-05-13 18:59:00,65.0,31.9,30.01,SSW,195,4.1,8.1,29,0.00,CLR,,0.00,WeatherDisplay:10.37,2013-05-13 23:59:00,
2013-05-13 19:04:00,64.8,32.6,30.02,South,184,4.2,6.9,30,0.00,CLR,,0.00,WeatherDisplay:10.37,2013-05-14 00:04:00,
2013-05-13 19:09:00,64.6,34.1,30.01,South,176,1.9,3.5,32,0.00,CLR,,0.00,WeatherDisplay:10.37,2013-05-14 00:09:00,
2013-05-13 19:14:00,64.5,33.2,30.02,SSW,194,4.2,6.9,31,0.00,CLR,,0.00,WeatherDisplay:10.37,2013-05-14 00:14:00,
2013-05-13 19:19:00,64.4,34.6,30.01,South,177,2.7,4.6,33,0.00,CLR,,0.00,WeatherDisplay:10.37,2013-05-14 00:19:00,
2013-05-13 19:24:00,64.1,35.1,30.01,South,172,1.1,2.3,34,0.00,CLR,,0.00,WeatherDisplay:10.37,2013-05-14 00:24:00,
2013-05-13 19:29:00,64.0,35.0,30.01,South,178,1.5,3.5,34,0.00,CLR,,0.00,WeatherDisplay:10.37,2013-05-14 00:29:00,
2013-05-13 19:34:00,63.8,35.6,30.01,South,178,1.4,4.0,35,0.00,CLR,,0.00,WeatherDisplay:10.37,2013-05-14 00:34:00,
2013-05-13 19:39:00,63.6,36.1,30.01,South,179,1.9,3.5,36,0.00,CLR,,0.00,WeatherDisplay:10.37,2013-05-14 00:39:00,
2013-05-13 19:44:00,63.5,36.0,30.01,SSW,193,1.5,3.5,36,0.00,CLR,,0.00,WeatherDisplay:10.37,2013-05-14 00:44:00,
2013-05-13 19:49:00,63.3,36.6,30.01,South,191,2.8,4.6,37,0.00,CLR,,0.00,WeatherDisplay:10.37,2013-05-14 00:49:00,
2013-05-13 19:54:00,63.1,36.4,30.01,SSW,207,3.3,4.6,37,0.00,CLR,,0.00,WeatherDisplay:10.37,2013-05-14 00:54:00,
2013-05-13 19:59:00,63.1,36.4,30.01,SSW,200,2.5,3.5,37,0.00,CLR,,0.00,WeatherDisplay:10.37,2013-05-14 00:59:00,
2013-05-13 20:04:00,62.9,36.9,30.01,South,169,2.6,3.5,38,0.00,CLR,,0.00,WeatherDisplay:10.37,2013-05-14 01:04:00,
2013-05-13 20:09:00,62.7,37.4,30.01,SSE,165,2.5,4.0,39,0.00,CLR,,0.00,WeatherDisplay:10.37,2013-05-14 01:09:00,
2013-05-13 20:14:00,62.3,37.0,30.00,SSE,165,2.9,3.5,39,0.00,CLR,,0.00,WeatherDisplay:10.37,2013-05-14 01:14:00,
2013-05-13 20:19:00,62.1,37.5,30.00,SSE,157,2.9,4.6,40,0.00,CLR,,0.00,WeatherDisplay:10.37,2013-05-14 01:19:00,
2013-05-13 20:24:00,61.9,37.3,30.00,SSE,157,3.3,3.5,40,0.00,CLR,,0.00,WeatherDisplay:10.37,2013-05-14 01:24:00,
2013-05-13 20:29:00,61.8,37.2,30.00,SSE,155,3.4,4.6,40,0.00,CLR,,0.00,WeatherDisplay:10.37,2013-05-14 01:29:00,
2013-05-13 20:34:00,61.7,37.1,30.00,SSE,155,1.8,3.5,40,0.00,CLR,,0.00,WeatherDisplay:10.37,2013-05-14 01:34:00,
2013-05-13 20:39:00,61.5,36.9,30.00,SSE,155,3.4,4.6,40,0.00,CLR,,0.00,WeatherDisplay:10.37,2013-05-14 01:39:00,
2013-05-13 20:44:00,61.4,37.5,30.00,SSE,155,2.0,3.5,41,0.00,CLR,,0.00,WeatherDisplay:10.37,2013-05-14 01:44:00,
2013-05-13 20:49:00,61.3,37.4,30.00,SSE,155,2.9,4.6,41,0.00,CLR,,0.00,WeatherDisplay:10.37,2013-05-14 01:49:00,
2013-05-13 20:54:00,61.3,37.4,30.01,SSE,153,2.5,3.5,41,0.00,CLR,,0.00,WeatherDisplay:10.37,2013-05-14 01:54:00,
2013-05-13 20:59:00,61.2,37.3,30.01,SSE,153,2.6,3.5,41,0.00,CLR,,0.00,WeatherDisplay:10.37,2013-05-14 01:59:00,
2013-05-13 21:04:00,61.0,37.7,30.01,SSE,153,2.4,4.0,42,0.00,CLR,,0.00,WeatherDisplay:10.37,2013-05-14 02:04:00,
2013-05-13 21:09:00,60.9,37.6,30.01,SSE,153,3.1,4.6,42,0.00,CLR,,0.00,WeatherDisplay:10.37,2013-05-14 02:09:00,
2013-05-13 21:14:00,60.7,38.1,30.02,SSE,153,2.8,4.0,43,0.00,CLR,,0.00,WeatherDisplay:10.37,2013-05-14 02:14:00,
2013-05-13 21:19:00,60.6,38.0,30.02,SSE,153,2.4,3.5,43,0.00,CLR,,0.00,WeatherDisplay:10.37,2013-05-14 02:19:00,
2013-05-13 21:24:00,60.6,38.0,30.02,SSE,153,3.0,4.0,43,0.00,CLR,,0.00,WeatherDisplay:10.37,2013-05-14 02:24:00,
2013-05-13 21:29:00,60.5,37.9,30.03,SSE,152,3.6,4.6,43,0.00,CLR,,0.00,WeatherDisplay:10.37,2013-05-14 02:29:00,
2013-05-13 21:34:00,60.4,37.8,30.03,SSE,152,4.0,4.0,43,0.00,CLR,,0.00,WeatherDisplay:10.37,2013-05-14 02:34:00,
2013-05-13 21:39:00,60.3,37.7,30.03,SSE,152,3.4,4.6,43,0.00,CLR,,0.00,WeatherDisplay:10.37,2013-05-14 02:39:00,
2013-05-13 21:44:00,60.3,37.7,30.03,SSE,152,4.2,4.6,43,0.00,CLR,,0.00,WeatherDisplay:10.37,2013-05-14 02:44:00,
2013-05-13 21:49:00,60.2,38.2,30.03,SSE,150,4.8,5.8,44,0.00,CLR,,0.00,WeatherDisplay:10.37,2013-05-14 02:49:00,
2013-05-13 21:54:00,60.0,38.0,30.02,SSE,149,4.8,5.8,44,0.00,CLR,,0.00,WeatherDisplay:10.37,2013-05-14 02:54:00,
2013-05-13 21:59:00,59.8,38.4,30.02,SSE,149,4.0,4.6,45,0.00,CLR,,0.00,WeatherDisplay:10.37,2013-05-14 02:59:00,
2013-05-13 22:04:00,59.6,38.8,30.02,SSE,149,4.6,5.8,46,0.00,CLR,,0.00,WeatherDisplay:10.37,2013-05-14 03:04:00,
2013-05-13 22:09:00,59.4,38.6,30.02,SSE,148,5.1,6.0,46,0.00,CLR,,0.00,WeatherDisplay:10.37,2013-05-14 03:09:00,
2013-05-13 22:14:00,59.2,38.4,30.01,SE,144,5.5,6.9,46,0.00,CLR,,0.00,WeatherDisplay:10.37,2013-05-14 03:14:00,
2013-05-13 22:19:00,59.0,38.8,30.01,SE,143,5.0,6.9,47,0.00,CLR,,0.00,WeatherDisplay:10.37,2013-05-14 03:19:00,
2013-05-13 22:24:00,58.7,39.0,30.01,SE,143,4.3,5.0,48,0.00,CLR,,0.00,WeatherDisplay:10.37,2013-05-14 03:24:00,
2013-05-13 22:29:00,58.6,39.0,30.01,SE,140,5.3,5.8,48,0.00,CLR,,0.00,WeatherDisplay:10.37,2013-05-14 03:29:00,
2013-05-13 22:34:00,58.5,38.9,30.01,SE,140,5.5,6.9,48,0.00,CLR,,0.00,WeatherDisplay:10.37,2013-05-14 03:34:00,
2013-05-13 22:39:00,58.4,39.3,30.01,SE,144,5.9,8.1,49,0.00,CLR,,0.00,WeatherDisplay:10.37,2013-05-14 03:39:00,
2013-05-13 22:44:00,58.2,39.1,30.00,SE,126,6.2,8.1,49,0.00,CLR,,0.00,WeatherDisplay:10.37,2013-05-14 03:44:00,
2013-05-13 22:49:00,57.9,39.4,30.00,SE,131,6.9,9.2,50,0.00,CLR,,0.00,WeatherDisplay:10.37,2013-05-14 03:49:00,
2013-05-13 22:54:00,57.7,39.7,30.00,SE,132,6.4,9.2,51,0.00,CLR,,0.00,WeatherDisplay:10.37,2013-05-14 03:54:00,
2013-05-13 22:59:00,57.4,39.9,30.00,SE,130,5.3,6.9,52,0.00,CLR,,0.00,WeatherDisplay:10.37,2013-05-14 03:59:00,
2013-05-13 23:01:00,57.3,39.8,30.00,SE,129,6.2,9.2,52,0.00,CLR,,0.00,WeatherDisplay:10.37,2013-05-14 04:01:00,
2013-05-13 23:02:00,57.3,39.8,30.00,SE,135,5.3,7.0,52,0.00,CLR,,0.00,WeatherDisplay:10.37,2013-05-14 04:02:00,
2013-05-13 23:07:00,57.2,39.7,29.99,SE,135,5.4,5.8,52,0.00,CLR,,0.00,WeatherDisplay:10.37,2013-05-14 04:07:00,
2013-05-13 23:12:00,57.0,39.5,29.99,SE,136,5.4,6.9,52,0.00,CLR,,0.00,WeatherDisplay:10.37,2013-05-14 04:12:00,
2013-05-13 23:17:00,56.7,39.7,29.99,SE,135,6.2,8.1,53,0.00,CLR,,0.00,WeatherDisplay:10.37,2013-05-14 04:17:00,
2013-05-13 23:22:00,56.5,39.6,29.98,SE,134,6.2,9.2,53,0.00,CLR,,0.00,WeatherDisplay:10.37,2013-05-14 04:22:00,
2013-05-13 23:27:00,56.4,39.5,29.98,SE,136,6.8,10.4,53,0.00,CLR,,0.00,WeatherDisplay:10.37,2013-05-14 04:27:00,
2013-05-13 23:32:00,56.4,39.5,29.98,SE,136,7.3,11.5,53,0.00,CLR,,0.00,WeatherDisplay:10.37,2013-05-14 04:32:00,
2013-05-13 23:37:00,56.3,39.9,29.98,SSE,148,4.5,9.2,54,0.00,CLR,,0.00,WeatherDisplay:10.37,2013-05-14 04:37:00,
2013-05-13 23:42:00,56.0,40.1,29.98,SE,146,5.1,8.1,55,0.00,CLR,,0.00,WeatherDisplay:10.37,2013-05-14 04:42:00,
2013-05-13 23:47:00,55.9,40.0,29.97,SE,136,6.9,10.4,55,0.00,CLR,,0.00,WeatherDisplay:10.37,2013-05-14 04:47:00,
2013-05-13 23:52:00,55.7,40.2,29.97,SSE,153,6.6,8.1,56,0.00,CLR,,0.00,WeatherDisplay:10.37,2013-05-14 04:52:00,
2013-05-13 23:57:00,55.6,40.1,29.97,SE,138,6.1,8.1,56,0.00,CLR,,0.00,WeatherDisplay:10.37,2013-05-14 04:57:00,